Location: Plainartige
(45.6866°N, 1.7993°E)
Time: 16:56:55
(UTC+00:00)

DIWATA 2B (PO-101) - Pass Details

Date: 02 July 2022
Orbit: 583 x 599 km, 98.0° (Epoch: 19 August)

Event Time Altitude Azimuth Distance (km) Brightness Sun altitude
Exits shadow 01:47:02 27° 170° (S) 1,165 ? -16.8°
Maximum altitude 01:49:18 83° 255° (WSW) 611 ? -16.7°
Drops below altitude 10° 01:53:33 10° 345° (NNW) 1,951 ? -16.3°
Sets 01:55:44 0° 346° (NNW) 2,858 ? -16.1°
